User: anonymous   Login
Location: Unspecified
(0.0000°N, 0.0000°E)
Time: 21:31:55
(UTC+00:00)
Language:

SOCRATES - Orbit

View from above orbital plane
View from above orbital plane
View from above satellite
View from above satellite

Ground track
Ground track

The orbit is defined by the following mean orbital elements,

1 39768U          26145.60987169 +.00000000 +00000-0 +16089-3 0 00007
2 39768  97.9054 258.8970 0007319  62.2596 297.9365 14.94690722    03
Epoch (UTC): 25 May 2026 14:38:12
Eccentricity: 0.0007319
inclination: 97.9054°
perigee height: 578 km
apogee height: 588 km
right ascension of ascending node: 258.8970°
argument of perigee: 62.2596°
revolutions per day: 14.94690722
mean anomaly at epoch: 297.9365°

The dashed part of the orbit path shows where the satellite is in the earth's shadow,  

DLR